Regional Weather Roundup
Issued by NWS

Home | Current Version | Previous Version | Graphics & Text | Print | Product List | Glossary On
Versions: 1 2 3 4 5 6 7 8 9 10 11 12 13 14 15 16 17 18 19 20 21 22 23 24 25 26 27 28 29 30 31 32 33 34 35 36 37 38 39 40 41 42 43 44 45 46 47 48 49 50
275
ASUS44 KJAN 270303
RWRMS

MISSISSIPPI HOURLY WEATHER ROUNDUP
NATIONAL WEATHER SERVICE JACKSON MS
900 PM CST WED NOV 26 2014

NOTE: "FAIR: INDICATES FEW OR NO CLOUDS BELOW 12,000 FEET WITH NO
SIGNIFICANT WEATHER AND/OR OBSTRUCTIONS TO VISIBILITY.

MSZ001>002-007>008-010>013-018>021-025>028-034>036-270400-
NORTHWEST MISSISSIPPI

CITY           SKY/WX    TMP DP  RH WIND       PRES   REMARKS
CLARKSDALE     FAIR      37  36  93 CALM      30.20R
CLEVELAND      FAIR      48  35  62 NW9       30.19R
GREENWOOD      CLEAR     39  34  82 CALM      30.18R
GREENVILLE     FAIR      47  35  63 W7        30.20R
GRENADA        FAIR      36  34  93 CALM      30.18R
OLIVE BRANCH   PTCLDY    39  37  93 W6        30.16R WCI  35
OXFORD         FAIR      36  32  87 CALM      30.18R
TUNICA         CLEAR     36  32  87 SW3       30.19R
$$

MSZ003>006-009-014>017-022>024-029>033-037>039-270400-
NORTHEAST MISSISSIPPI

CITY           SKY/WX    TMP DP  RH WIND       PRES   REMARKS
COLUMBUS AFB   CLEAR     47  29  50 NW8       30.17R
CORINTH        FAIR      43  34  70 NW7G14    30.14S
GOLDN TRIANGLE CLEAR     48  28  46 NW8       30.16R
STARKVILLE     FAIR      46  34  61 NW3       30.16R
TUPELO         MOCLDY    47  31  53 NW3       30.15S
$$

MSZ040-058-270400-
CENTRAL MISSISSIPPI

CITY           SKY/WX    TMP DP  RH WIND       PRES   REMARKS
JACKSON INTL   CLEAR     49  34  56 W3        30.20R
JACKSON HAWKNS CLEAR     52  34  50 NW5       30.20R
MERIDIAN KEY   CLEAR     50  33  52 NW7       30.18R
MERIDIAN NAS   PTCLDY    53  33  46 NW12      30.17R
RAYMOND        FAIR      54  48  82 NW5       30.20R
VICKSBURG      CLEAR     49  36  61 W3        30.22R
$$

MSZ059>079-270400-
SOUTH MISSISSIPPI

CITY           SKY/WX    TMP DP  RH WIND       PRES   REMARKS
BROOKHAVEN     FAIR      55  39  54 W8        30.21R
HATTIESBURG    CLEAR     55  39  54 SW6       30.19R
MCCOMB         CLEAR     55  40  56 W5        30.21R
NATCHEZ        CLEAR     55  37  50 W6        30.23R
PINE BELT      CLEAR     46  37  71 CALM      30.19R
$$

MSZ080>082-270400-
COASTAL MISSISSIPPI

CITY           SKY/WX    TMP DP  RH WIND       PRES   REMARKS
BAY ST LOUIS   CLEAR     50  41  71 SW5       30.21
BILOXI         CLEAR     57  49  75 SW12G18   30.20S
PASCAGOULA     CLEAR     57  45  64 SW6       30.20S
GULFPORT       CLEAR     57  45  64 SW7       30.20S
$$



USA.gov is the U.S. government's official web portal to all federal, state and local government web resources and services.